Hourly Data Report for March 10, 2022

KUGAARUK CLIMATE
NUNAVUT
Current Station Operator: ECCC - MSC

68°32'15.060" N
89°47'47.020" W
15.80 m
2303094
71407
NBB

Download Data

Hourly Data (March 2022)
Hourly Data Report for March 10, 2022
TIME
LST
Temp Definition
°C
Dew Point Definition
°C
Rel Hum Definition
%
Precip. Amount Definition
mm

Wind Dir Definition
10's deg

Wind Spd Definition
km/h
Visibility Definition
km
Stn Press Definition
kPa
Hmdx Definition


Wind Chill Definition


Weather Definition


00:00 -28.5 -31.7 74 0.0 25 18   99.88   -41 LegendNANA
01:00 -28.5 -31.9 73 0.0 24 18   99.87   -41 LegendNANA
02:00 -28.7 -32.2 72 0.0 22 12   99.87   -39 LegendNANA
03:00 -28.0 -31.5 72 0.0 24 16   99.86   -39 LegendNANA
04:00 -27.6 -31.1 72 0.0 23 22   99.84   -41 LegendNANA
05:00 -27.9 -31.4 72 0.0 22 25   99.84   -42 LegendNANA
06:00 -29.2 -32.7 71 0.0 24 22   99.84   -43 LegendNANA
07:00 -30.5 -34.0 71 0.0 23 25   99.83   -45 LegendNANA
08:00 -31.2 -35.2 68 0.0 23 23   99.84   -45 LegendNANA
09:00 -31.3 -35.7 65 0.0 23 25   99.83   -46 LegendNANA
10:00 -31.0 -35.6 64 0.0 23 26   99.81   -46 LegendNANA
11:00 -30.6 -35.4 63 0.0 23 23   99.85   -45 LegendNANA
12:00 -30.2 -35.0 63 0.0 23 19   99.89   -43 LegendNANA
13:00 -29.8 -34.5 63 0.0 24 16   99.90   -42 LegendNANA
14:00 -29.5 -34.6 62 0.0 24 10   99.94   -39 LegendNANA
15:00 -28.9 -33.9 62 0.0 26 5   99.96   -34 LegendNANA
16:00 -30.9 -35.2 66 0.0 3 5   99.98   -37 LegendNANA
17:00 -32.6 -36.2 70 0.0 4 4   100.02   -37 LegendNANA
18:00 -33.3 -36.8 71 0.0 8 3   100.00   -37 LegendNANA
19:00 -34.8 -38.3 71 0.0 8 2   100.03   -37 LegendNANA
20:00 -34.7 -38.1 71 0.0 13 4   100.03   -40 LegendNANA
21:00 -35.6 -39.1 70 0.0 8 3   100.02   -39 LegendNANA
22:00 -36.7 -40.1 70 0.0 3 4   100.01   -42 LegendNANA
23:00 -37.4 -40.8 70 0.0 6 3   99.99   -41 LegendNANA

Notes on Data Quality.

Legend

  • E = Estimated
  • M = Missing
  • NA = Not Available*
  • [empty] = Indicates an unobserved value
Date modified: